STARLINK-34095, 63809

Orbit data source: Space-Track

STARLINK-34095, 63809 is a payload satellite owned by SpaceX/Seattle (US) in LEO that was launched on Sun, 04 May 2025 UTC via an FALCON 9 launch vehicle from the Air Force Eastern Test Range (AFETR). Payload-class satellites include a variety of spacecraft equipped with specific instruments for various scientific and technological missions. These include communications satellites like Starlink; space stations such as the ISS; scientific satellites like the Hubble; Earth observation satellites from companies like Planet Labs, Umbra, and HawkEye 360; GPS; miniature CubeSats for education and research; and military/defense satellites.

Loading next visibility...
Identifier
63809, 2025-092F
Orbit
LEO
Country
Flag of USUS
Related business
Manufacturer
SpaceX/Seattle
Mission
Operational Commercial Communications
Bus & Motor
STARLINK V2MO, Unknown motor
Mass
575 kg wet, ~530 kg dry
Launch date (UTC)
2025-05-04 (9 months ago)
Launch vehicle
FALCON 9
Launch site
Air Force Eastern Test Range (AFETR)
Object type
Payload
Rocket body
Debris
Shape & HBR
Box + 2 Pan, 17.7 m
Radar Cross Section
36.964 m², Large (>1 m²)

Expand to show TLE details & history
Last TLE update: 17 hours ago

TLE from 17 hours ago
0 STARLINK-34095
1 63809U 25092F   26035.23594412  .00045742  00000-0  16611-2 0  9999
2 63809  43.0040   1.8847 0001258 282.2778  77.7933 15.27587275 43494
Epoch: 2026-02-04T05:39Z
TLE epoch observation values (Epoch: 2026-02-04T05:39:45.571Z)
Latitude
-0.00003°
Longitude
142.53936°
Altitude
482.621 km
Speed
7.626 km/s
True Right ascension
00h 07m 32s
True Declination
0° 00' 00"
Sunlit
Object was in daylight at epoch
Visualization orbit readout
Latitude
Unknown
Longitude
Unknown
Altitude
Unknown
Speed
Unknown
Apparent Right ascension
Unknown
Apparent Declination
Unknown
Sunlit
N/A
Visualization observer readout
Local Sidereal Time
00:43:59
Azimuth
Unknown
Elevation
Unknown
Doppler factor
Unknown
Orbital elements
Apogee altitude
485.835 km
Perigee altitude
484.108 km
Semi-major axis
6,863.109 km
Eccentricity
0.00013
Inclination
43.004°
RAAN
1.8847°
Arg. of periapsis
282.2778°
True anomaly
77.80739°
Mean anomaly
77.7933°
Eccentric anomaly
77.80035°
Mean motion
3.81735 °/min
Orbital period
94.31 mins
BSTAR
0.0016611
Loading maneuver chart data...
Computing Atmospheric mass density...
Loading historical data...
Loading historical data...
Loading historical data...
Loading historical data...
Loading historical data...
Loading historical data...
Loading historical data...

Documentation

Showing up to 5 results
|